Gene Autry, OK

4:48 PM CST on February 24, 2017 (GMT -0600)
Ardmore Municipal

Weather History for KADM - January, 2012

Change the Weather History Date:

Sunday, January 15, 2012

  Actual Average Record
Temperature  
Mean Temperature 44 °F -  
Max Temperature 62 °F 50 °F 66 °F (2000)
Min Temperature 26 °F 32 °F 19 °F (2009)
Degree Days  
Heating Degree Days 21    
Moisture  
Dew Point 32 °F    
Average Humidity 78    
Maximum Humidity 93    
Minimum Humidity 34    
Precipitation  
Precipitation 0.00 in - - ()
Sea Level Pressure  
Sea Level Pressure 30.15 in    
Wind  
Wind Speed 3 mph (South)    
Max Wind Speed 18 mph    
Max Gust Speed 26 mph    
Visibility 10 miles    
Events      
Averages and records for this station are not official NWS values.
T = Trace of Precipitation, MM = Missing Value Source: NWS Daily Summary

Daily Weather History Graph

Daily Weather History Graph

Search for Another Location

Airport or City:

Trip Planner

Search our weather history database for the weather conditions in past years. The results will help you decide how hot, cold, wet, or windy it might be!

Date:

Astronomy

Jan. 15, 2012 Rise Set
Actual Time 7:34 AM CST 5:40 PM CST
Civil Twilight 7:06 AM CST 6:08 PM CST
Nautical Twilight 6:36 AM CST 6:39 PM CST
Astronomical Twilight 6:05 AM CST 7:09 PM CST
Moon No Moon Rise 11:13 AM CST (1/15)
Length of Visible Light 11h 01m
Length of Day
10h 06m
Waning Gibbous, 57% of the Moon is Illuminated
Jan 15
Waning Gibbous
Jan 16
Last Quarter
Jan 23
New
Jan 30
First Quarter
Feb 7
Full

Hourly Weather History & Observations

Time (CST) Temp. Dew Point Humidity Pressure Visibility Wind Dir Wind Speed Gust Speed Precip Events Conditions
12:15 AM 32.0 °F 28.4 °F 87% 30.24 in 10.0 mi Calm Calm - N/A   Clear
12:35 AM 32.0 °F 28.4 °F 87% 30.23 in 10.0 mi Calm Calm - N/A   Clear
12:55 AM 30.2 °F 28.4 °F 93% 30.23 in 10.0 mi Calm Calm - N/A   Clear
1:15 AM 30.2 °F 26.6 °F 86% 30.22 in 10.0 mi Calm Calm - N/A   Clear
1:35 AM 30.2 °F 26.6 °F 86% 30.22 in 10.0 mi Calm Calm - N/A   Clear
1:55 AM 30.2 °F 26.6 °F 86% 30.22 in 10.0 mi Calm Calm - N/A   Clear
2:15 AM 30.2 °F 26.6 °F 86% 30.22 in 10.0 mi Calm Calm - N/A   Clear
2:35 AM 30.2 °F 26.6 °F 86% 30.22 in 10.0 mi Calm Calm - N/A   Clear
2:55 AM 30.2 °F 26.6 °F 86% 30.21 in 10.0 mi Calm Calm - N/A   Clear
3:15 AM 30.2 °F 26.6 °F 86% 30.21 in 10.0 mi Calm Calm - N/A   Clear
3:35 AM 30.2 °F 26.6 °F 86% 30.21 in 10.0 mi Calm Calm - N/A   Clear
4:15 AM 30.2 °F 24.8 °F 80% 30.20 in 10.0 mi Calm Calm - N/A   Clear
4:35 AM 28.4 °F 24.8 °F 86% 30.19 in 10.0 mi Calm Calm - N/A   Clear
4:55 AM 28.4 °F 26.6 °F 93% 30.20 in 10.0 mi Calm Calm - N/A   Clear
5:15 AM 28.4 °F 26.6 °F 93% 30.19 in 10.0 mi Calm Calm - N/A   Clear
5:35 AM 28.4 °F 24.8 °F 86% 30.20 in 10.0 mi Calm Calm - N/A   Clear
7:55 AM 26.6 °F 24.8 °F 93% 30.21 in 10.0 mi Calm Calm - N/A   Clear
8:55 AM 26.6 °F 24.8 °F 93% 30.21 in 10.0 mi Calm Calm - N/A   Clear
12:55 PM 60.8 °F 33.8 °F 36% 30.13 in 10.0 mi South 15.0 mph 18.4 mph N/A   Clear
1:55 PM 62.6 °F 33.8 °F 34% 30.07 in 10.0 mi South 12.7 mph 19.6 mph N/A   Clear
9:15 PM 55.4 °F 42.8 °F 63% 30.03 in 10.0 mi South 8.1 mph - N/A   Clear
9:35 PM 55.4 °F 44.6 °F 67% 30.02 in 10.0 mi South 15.0 mph 21.9 mph N/A   Clear
9:55 PM 57.2 °F 44.6 °F 63% 30.03 in 10.0 mi South 8.1 mph - N/A   Clear
10:15 PM 57.2 °F 44.6 °F 63% 30.02 in 10.0 mi South 13.8 mph 20.7 mph N/A   Clear
10:35 PM 57.2 °F 46.4 °F 67% 30.02 in 10.0 mi South 16.1 mph 20.7 mph N/A   Clear
10:55 PM 57.2 °F 46.4 °F 67% 30.01 in 10.0 mi South 15.0 mph 25.3 mph N/A   Clear
11:35 PM 57.2 °F 46.4 °F 67% 30.00 in 10.0 mi South 18.4 mph 26.5 mph N/A   Clear
11:55 PM 57.2 °F 46.4 °F 67% 30.00 in 10.0 mi SSW 12.7 mph 25.3 mph N/A   Clear